DW5212 Weather Reports


time (UTC)temp
C
wind
direction
speed
KPH
gust
KPH
rain 1hr
cm
rain 24hr
cm
rain mn
cm
humidity
%
barometer
mb
20260506201008 26 230 1.6 11.3 0.00 0.00 0.00 84 1010.0
20260506200507 26 173 0.0 1.6 0.00 0.00 0.00 84 1009.9
20260506200009 26 173 0.0 4.8 0.00 0.00 0.00 84 1009.9
20260506195507 26 173 0.0 4.8 0.00 0.00 0.00 83 1009.8
20260506195008 27 168 0.0 3.2 0.00 0.00 0.00 82 1009.8
20260506194511 27 180 0.0 3.2 0.00 0.00 0.00 82 1009.6
20260506194008 27 180 0.0 3.2 0.00 0.00 0.00 82 1009.7
20260506193506 27 219 0.0 3.2 0.00 0.00 0.00 81 1009.8
20260506193008 27 218 0.0 1.6 0.00 0.00 0.00 81 1009.9
20260506192008 27 236 1.6 4.8 0.00 0.00 0.00 81 1009.9
20260506191508 27 240 1.6 4.8 0.00 0.00 0.00 81 1009.8
20260506191008 27 157 1.6 4.8 0.00 0.00 0.00 80 1009.8
20260506190506 27 140 1.6 4.8 0.00 0.00 0.00 81 1009.9
20260506185509 27 169 1.6 4.8 0.00 0.00 0.00 82 1010.5
20260506185008 27 232 0.0 4.8 0.00 0.00 0.00 83 1010.7
20260506184008 26 167 1.6 8.0 0.00 0.00 0.00 83 1011.1
20260506183507 26 196 1.6 8.0 0.00 0.00 0.00 83 1011.3
20260506183009 26 99 1.6 8.0 0.00 0.00 0.00 83 1011.2
20260506182506 26 54 1.6 6.4 0.00 0.00 0.00 83 1011.6
20260506182007 27 202 3.2 8.0 0.00 0.00 0.00 83 1011.7
20260506181508 27 81 3.2 8.0 0.00 0.00 0.00 83 1011.7
20260506181008 27 218 1.6 8.0 0.00 0.00 0.00 83 1011.9
20260506180507 27 175 1.6 6.4 0.00 0.00 0.00 83 1012.1
20260506180010 27 220 1.6 9.7 0.00 0.00 0.00 83 1012.2
20260506175508 27 148 4.8 16.1 0.00 0.00 0.00 84 1012.1
20260506174507 26 189 1.6 12.9 0.00 0.00 0.00 84 1012.3
20260506174009 26 244 1.6 9.7 0.00 0.00 0.00 85 1012.2
20260506173507 26 198 3.2 9.7 0.00 0.00 0.00 84 1012.2
20260506173009 26 220 3.2 9.7 0.00 0.00 0.00 85 1012.3
20260506172509 26 223 3.2 9.7 0.00 0.00 0.00 86 1012.2
20260506172007 26 196 1.6 9.7 0.00 0.00 0.00 87 1012.2
20260506171509 25 172 3.2 4.8 0.00 0.00 0.00 86 1012.0
20260506171010 25 255 3.2 14.5 0.00 0.00 0.00 86 1012.1
20260506170508 25 225 3.2 14.5 0.00 0.00 0.00 85 1012.2
20260506170009 26 190 1.6 8.0 0.00 0.00 0.00 85 1012.1
20260506165006 26 221 1.6 11.3 0.00 0.00 0.00 85 1012.3
20260506164506 26 244 3.2 11.3 0.00 0.00 0.00 86 1012.3
20260506164008 26 217 3.2 8.0 0.00 0.00 0.00 86 1012.2
20260506163506 26 262 3.2 11.3 0.00 0.00 0.00 87 1012.3
20260506163010 26 134 3.2 11.3 0.00 0.00 0.00 86 1012.2
20260506162507 25 227 1.6 11.3 0.00 0.00 0.00 87 1012.2
20260506161506 25 229 3.2 9.7 0.00 0.00 0.00 87 1012.3
20260506161008 25 223 3.2 9.7 0.00 0.00 0.00 87 1012.3
20260506160506 25 53 1.6 4.8 0.00 0.00 0.00 88 1012.4
20260506160013 25 257 1.6 9.7 0.00 0.00 0.00 88 1012.4
20260506155508 25 186 3.2 11.3 0.00 0.00 0.00 88 1012.4
20260506155010 25 260 1.6 11.3 0.00 0.00 0.00 88 1012.3
20260506154511 25 182 1.6 4.8 0.00 0.00 0.00 88 1012.3
20260506154008 25 187 1.6 6.4 0.00 0.00 0.00 88 1012.2
20260506153506 25 86 1.6 6.4 0.00 0.00 0.00 87 1012.1
20260506153009 25 257 1.6 8.0 0.00 0.00 0.00 87 1012.0
20260506152507 25 229 1.6 11.3 0.00 0.00 0.00 87 1012.1
20260506152008 25 156 1.6 11.3 0.00 0.00 0.00 87 1011.9
20260506151507 25 225 1.6 9.7 0.00 0.00 0.00 87 1011.9
20260506151009 25 168 3.2 14.5 0.00 0.00 0.00 87 1011.7
20260506150506 25 238 3.2 14.5 0.00 0.00 0.00 88 1011.8
20260506150011 25 191 1.6 11.3 0.00 0.00 0.00 88 1011.7
20260506145507 25 113 1.6 6.4 0.00 0.00 0.00 89 1011.7
20260506145009 25 259 4.8 12.9 0.00 0.00 0.00 89 1011.7
20260506144510 25 232 3.2 14.5 0.00 0.00 0.00 90 1011.7
20260506144007 24 143 1.6 8.0 0.00 0.00 0.00 91 1011.7
20260506143506 24 164 1.6 6.4 0.00 0.00 0.00 91 1011.6
20260506143009 24 86 1.6 4.8 0.00 0.00 0.00 91 1011.7
20260506142008 23 149 1.6 8.0 0.00 0.00 0.00 92 1011.7
20260506141506 23 196 1.6 4.8 0.00 0.00 0.00 92 1011.7
20260506141008 23 253 0.0 3.2 0.00 0.00 0.00 92 1011.7
20260506140507 23 238 1.6 6.4 0.00 0.00 0.00 93 1011.6
20260506140009 23 200 0.0 6.4 0.00 0.00 0.00 93 1011.7
20260506135506 23 188 0.0 0.0 0.00 0.00 0.00 93 1011.6
20260506135007 23 188 0.0 0.0 0.00 0.00 0.00 93 1011.6
20260506134506 22 217 0.0 0.0 0.00 0.00 0.00 94 1011.7
20260506134008 22 161 0.0 0.0 0.00 0.00 0.00 93 1011.6
20260506133506 22 162 0.0 0.0 0.00 0.00 0.00 93 1011.7
20260506133008 22 184 0.0 3.2 0.00 0.00 0.00 93 1011.6
20260506132507 22 184 0.0 3.2 0.00 0.00 0.00 93 1011.6
20260506132007 22 194 0.0 3.2 0.00 0.00 0.00 93 1011.6
20260506131507 22 191 0.0 0.0 0.00 0.00 0.00 93 1011.5
20260506131008 22 192 0.0 1.6 0.00 0.00 0.00 93 1011.5
20260506130506 22 192 0.0 1.6 0.00 0.00 0.00 93 1011.4
20260506125506 22 192 0.0 3.2 0.00 0.00 0.00 93 1011.4
20260506125008 22 258 0.0 3.2 0.00 0.00 0.00 93 1011.4
20260506124008 22 205 0.0 3.2 0.00 0.00 0.00 93 1011.3
20260506123507 22 205 0.0 1.6 0.00 0.00 0.00 93 1011.3
20260506122506 22 223 1.6 4.8 0.00 0.00 0.00 92 1011.0
20260506121007 22 183 0.0 4.8 0.00 0.00 0.00 92 1010.8
20260506120507 22 196 0.0 1.6 0.00 0.00 0.00 92 1010.6
20260506120009 22 196 0.0 1.6 0.00 0.00 0.00 92 1010.8
20260506115507 22 219 0.0 0.0 0.00 0.00 0.00 92 1010.8
20260506115009 22 219 0.0 3.2 0.00 0.00 0.00 92 1010.7
20260506114508 22 219 0.0 3.2 0.00 0.00 0.00 92 1010.6
20260506114006 22 194 0.0 3.2 0.00 0.00 0.00 92 1010.4
20260506111006 22 249 0.0 4.8 0.00 0.00 0.00 91 1010.1
20260506110507 22 236 0.0 0.0 0.00 0.00 0.00 91 1010.1
20260506110007 22 172 0.0 0.0 0.00 0.00 0.00 91 1010.0
20260506105505 22 236 0.0 0.0 0.00 0.00 0.00 91 1010.0
20260506104506 22 236 0.0 3.2 0.00 0.00 0.00 91 1010.1
20260506104006 22 236 1.6 6.4 0.00 0.00 0.00 91 1010.1
20260506103506 22 237 1.6 6.4 0.00 0.00 0.00 91 1009.9
20260506102506 22 229 1.6 6.4 0.00 0.00 0.00 91 1009.9
20260506102008 22 223 1.6 6.4 0.00 0.00 0.00 91 1009.8
20260506101506 22 234 1.6 6.4 0.00 0.00 0.00 90 1009.7
20260506100505 22 176 0.0 4.8 0.00 0.00 0.00 90 1009.9
20260506100008 22 233 1.6 6.4 0.00 0.00 0.00 90 1009.9
20260506095507 22 232 1.6 14.5 0.00 0.00 0.00 90 1009.7
20260506095006 22 285 1.6 6.4 0.00 0.00 0.00 90 1009.6
20260506094506 22 209 1.6 4.8 0.00 0.00 0.00 90 1009.7
20260506094007 22 224 1.6 6.4 0.00 0.00 0.00 90 1009.7
20260506093505 22 224 1.6 8.0 0.00 0.00 0.00 90 1009.7
20260506093008 22 234 1.6 6.4 0.00 0.00 0.00 90 1009.7
20260506092007 22 231 0.0 6.4 0.00 0.00 0.00 90 1009.7
20260506091505 22 327 0.0 3.2 0.00 0.00 0.00 89 1009.7
20260506091007 22 167 1.6 6.4 0.00 0.00 0.00 89 1009.6
20260506090010 22 195 0.0 9.7 0.00 0.00 0.00 89 1009.7
20260506085506 22 257 1.6 6.4 0.00 0.00 0.00 89 1009.9
20260506085006 22 232 3.2 9.7 0.00 0.00 0.00 89 1010.0
20260506084506 22 259 3.2 9.7 0.00 0.00 0.00 89 1010.0
20260506084007 22 226 1.6 11.3 0.00 0.00 0.00 89 1010.0
20260506083505 22 234 1.6 11.3 0.00 0.00 0.00 89 1010.2
20260506083008 22 246 1.6 6.4 0.00 0.00 0.00 89 1010.2
20260506082506 22 188 1.6 8.0 0.00 0.00 0.00 89 1010.1
20260506082006 22 209 1.6 9.7 0.00 0.00 0.00 89 1010.1
20260506081506 22 191 3.2 8.0 0.00 0.00 0.00 89 1010.1
20260506081006 22 204 3.2 8.0 0.00 0.00 0.00 89 1010.2
20260506080505 22 246 3.2 8.0 0.00 0.00 0.00 89 1010.2
20260506073506 22 92 3.2 12.9 0.00 0.00 0.00 89 1010.1
20260506073008 22 252 3.2 9.7 0.00 0.00 0.00 89 1010.2
20260506072507 22 234 3.2 8.0 0.00 0.00 0.00 89 1010.2
20260506072007 22 202 3.2 9.7 0.00 0.00 0.00 89 1010.1
20260506071506 22 243 1.6 8.0 0.00 0.00 0.00 89 1010.1
20260506071006 22 232 3.2 8.0 0.00 0.00 0.00 89 1010.1
20260506070506 22 163 3.2 11.3 0.00 0.00 0.00 89 1010.2
20260506062506 22 169 1.6 9.7 0.00 0.00 0.00 89 1010.0
20260506061007 22 160 3.2 11.3 0.00 0.00 0.00 89 1009.8
20260506060505 22 228 3.2 12.9 0.00 0.00 0.00 88 1009.9
20260506051009 23 226 3.2 12.9 0.00 0.00 0.00 88 1009.9
20260506045008 23 209 3.2 16.1 0.00 0.00 0.00 88 1009.9
20260506043507 23 234 1.6 9.7 0.00 0.00 0.00 88 1009.8
20260506042507 23 207 3.2 16.1 0.00 0.00 0.00 87 1009.9
20260506042008 23 259 3.2 16.1 0.00 0.00 0.00 87 1009.7
20260506040014 23 189 3.2 16.1 0.00 0.00 0.00 88 1010.0
20260506035506 23 187 1.6 8.0 0.00 0.00 0.00 88 1010.0
20260506035009 23 172 1.6 6.4 0.00 0.00 0.00 88 1010.0
20260506034508 23 191 3.2 11.3 0.00 0.00 0.00 87 1010.1
20260506033508 23 236 1.6 12.9 0.00 0.00 0.00 87 1009.9
20260506033009 23 153 3.2 12.9 0.00 0.00 0.00 87 1009.6
20260506032506 23 189 3.2 14.5 0.00 0.00 0.00 87 1009.6
20260506032009 23 183 1.6 14.5 0.00 0.00 0.00 87 1009.6
20260506031507 23 303 1.6 14.5 0.00 0.00 0.00 87 1009.5
20260506031009 23 48 1.6 9.7 0.00 0.00 0.00 87 1009.3
20260506030507 23 192 3.2 9.7 0.00 0.00 0.00 87 1009.4
20260506030009 23 231 3.2 9.7 0.00 0.00 0.00 87 1009.3
20260506025506 23 260 3.2 9.7 0.00 0.00 0.00 87 1009.3
20260506025009 23 266 3.2 14.5 0.00 0.00 0.00 86 1009.3
20260506024008 23 231 3.2 8.0 0.00 0.00 0.00 86 1009.1
20260506023506 23 246 3.2 9.7 0.00 0.00 0.00 86 1008.9
20260506023009 23 119 3.2 9.7 0.00 0.00 0.00 86 1008.9
20260506022507 23 209 3.2 8.0 0.00 0.00 0.00 86 1008.8
20260506020507 23 63 4.8 17.7 0.00 0.00 0.00 85 1008.6
20260506020011 23 184 3.2 17.7 0.00 0.00 0.00 85 1008.6
20260506015507 23 240 1.6 9.7 0.00 0.00 0.00 85 1008.5
20260506015008 23 211 3.2 8.0 0.00 0.00 0.00 85 1008.4
20260506014508 23 240 3.2 11.3 0.00 0.00 0.00 85 1008.3
20260506013508 23 130 1.6 11.3 0.00 0.00 0.00 85 1008.4
20260506013010 23 133 3.2 12.9 0.00 0.00 0.00 84 1008.3
20260506012008 23 222 1.6 6.4 0.00 0.00 0.00 84 1008.3
20260506011508 23 212 1.6 6.4 0.00 0.00 0.00 84 1008.2
20260506011008 24 169 1.6 6.4 0.00 0.00 0.00 83 1008.0
20260506010007 24 295 1.6 12.9 0.00 0.00 0.00 83 1008.0
20260506005507 24 219 1.6 6.4 0.00 0.00 0.00 83 1008.0
20260506005007 24 180 1.6 9.7 0.00 0.00 0.00 82 1008.2
20260506004508 24 221 3.2 9.7 0.00 0.00 0.00 82 1008.0
20260506004008 24 125 3.2 11.3 0.00 0.00 0.00 82 1008.1
20260506003009 25 235 1.6 6.4 0.00 0.00 0.00 82 1008.1
20260506002007 25 205 3.2 11.3 0.00 0.00 0.00 82 1008.2
20260506001507 25 179 3.2 11.3 0.00 0.00 0.00 81 1008.3
20260506001008 25 196 3.2 11.3 0.00 0.00 0.00 81 1008.4
20260506000506 25 242 3.2 12.9 0.00 0.00 0.00 81 1008.4
20260506000009 25 255 1.6 11.3 0.00 0.00 0.00 81 1008.2
20260505235507 25 227 3.2 11.3 0.00 0.00 0.00 81 1008.3
20260505234506 25 239 3.2 12.9 0.00 0.00 0.00 80 1008.2
20260505234007 25 248 3.2 12.9 0.00 0.00 0.00 80 1008.2
20260505233507 25 246 3.2 8.0 0.00 0.00 0.00 80 1008.2
20260505233009 25 226 3.2 12.9 0.00 0.00 0.00 80 1008.2
20260505232007 25 226 3.2 11.3 0.00 0.00 0.00 80 1008.2
20260505231506 25 279 4.8 12.9 0.00 0.00 0.00 80 1008.1
20260505230506 25 27 3.2 12.9 0.00 0.00 0.00 79 1008.0
20260505225506 25 215 3.2 9.7 0.00 0.00 0.00 79 1008.2
20260505225008 25 181 3.2 8.0 0.00 0.00 0.00 79 1008.2
20260505224506 25 234 3.2 14.5 0.00 0.00 0.00 79 1008.2
20260505224008 25 180 3.2 14.5 0.00 0.00 0.00 79 1008.2
20260505223505 25 229 4.8 12.9 0.00 0.00 0.00 79 1008.2
20260505223008 25 247 4.8 11.3 0.00 0.00 0.00 79 1008.1
20260505222506 26 188 3.2 14.5 0.00 0.00 0.00 79 1008.1
20260505222008 26 240 3.2 14.5 0.00 0.00 0.00 79 1008.1
20260505221007 26 154 3.2 16.1 0.00 0.00 0.00 79 1008.1
20260505220505 26 158 4.8 16.1 0.00 0.00 0.00 78 1008.1
20260505220008 26 198 4.8 24.1 0.00 0.00 0.00 79 1008.1
20260505215508 26 197 4.8 24.1 0.00 0.00 0.00 79 1008.1
20260505215007 26 45 4.8 22.5 0.00 0.00 0.00 79 1008.2
20260505214506 25 171 6.4 14.5 0.00 0.00 0.00 79 1008.1
20260505214007 25 242 4.8 16.1 0.00 0.00 0.00 79 1008.2
20260505213506 25 194 4.8 12.9 0.00 0.00 0.00 79 1008.2
20260505213009 25 160 6.4 17.7 0.00 0.00 0.00 80 1008.2
20260505212507 25 102 6.4 16.1 0.00 0.00 0.00 80 1008.3
20260505212006 25 153 4.8 12.9 0.00 0.00 0.00 80 1008.5
20260505211506 25 273 4.8 12.9 0.00 0.00 0.00 81 1008.6
20260505211007 25 239 3.2 12.9 0.00 0.00 0.00 81 1008.7
20260505210010 25 211 3.2 12.9 0.00 0.00 0.00 82 1008.9
20260505205506 25 169 3.2 12.9 0.00 0.00 0.00 82 1008.9
20260505205009 24 245 3.2 6.4 0.00 0.00 0.00 82 1008.9
20260505204506 24 211 3.2 11.3 0.00 0.00 0.00 82 1009.0
20260505204009 24 219 3.2 12.9 0.00 0.00 0.00 82 1009.0
20260505203507 24 274 3.2 14.5 0.00 0.00 0.00 82 1009.2
20260505203008 24 220 1.6 14.5 0.00 0.00 0.00 82 1009.2
20260505202506 24 184 1.6 9.7 0.00 0.00 0.00 81 1009.2
20260505202009 24 224 3.2 8.0 0.00 0.00 0.00 81 1009.3